Wind_Speed
102 101 101 102 108 113 115 113 113 111 109 110 109 107 101 97 92 86 81 77 74 72 69 68 69 71 74 78 81 86 90 90 92 101 111 116 118 119
106 102 103 109 113 114 113 113 114 112 109 108 103 97 93 87 82 76 73 70 67 65 62 62 63 66 69 73 76 79 84 87 90 94 103 115 119 123
106 104 109 113 113 113 114 113 111 109 104 100 95 88 83 79 74 72 68 64 62 61 57 56 57 60 63 67 72 77 80 82 86 91 98 107 119 125
107 110 113 112 112 114 114 110 105 101 95 92 89 82 79 74 70 68 63 58 58 56 55 54 56 57 60 63 66 70 74 78 82 87 94 100 111 122
111 112 112 113 114 114 112 105 101 97 89 84 81 78 74 68 66 63 60 56 53 52 54 55 53 52 54 58 62 66 69 74 77 82 89 97 106 115
114 113 114 115 115 112 107 103 97 90 83 80 75 72 67 64 62 60 57 54 51 50 54 51 49 50 51 53 58 62 65 69 74 77 83 92 100 108
115 115 114 113 111 107 102 96 89 84 79 74 69 67 63 61 58 56 55 52 48 49 51 45 48 49 49 52 54 58 62 66 69 74 79 86 93 102
116 115 113 110 106 100 94 88 82 77 73 69 65 62 59 57 55 53 51 49 47 49 50 39 45 45 48 50 51 54 58 62 65 69 75 81 89 96
117 114 110 105 99 93 86 82 75 70 67 64 62 58 56 53 51 49 47 48 46 45 48 38 41 45 44 45 48 49 52 56 61 65 70 76 84 91
114 110 105 98 92 86 80 76 70 66 63 60 59 58 56 53 50 48 47 44 43 41 45 38 39 39 39 41 44 45 47 52 56 60 65 72 78 86
112 106 97 92 87 80 76 71 66 62 60 58 58 56 54 51 49 48 44 42 40 39 41 38 35 36 34 37 40 42 44 48 52 55 59 67 74 79
106 98 91 86 80 75 71 67 63 60 59 57 55 52 50 48 46 45 42 38 39 37 39 35 32 35 30 33 37 39 42 45 48 50 54 60 67 74
98 92 84 79 76 71 67 63 61 59 57 54 50 48 45 45 43 42 41 39 38 37 36 34 31 31 32 28 34 35 38 40 43 46 49 54 59 69
93 86 79 74 71 67 63 61 60 57 54 52 49 46 44 41 40 38 38 37 38 34 34 32 29 28 28 29 28 32 34 37 40 43 45 47 54 63
86 82 74 69 66 65 62 59 57 54 52 50 47 44 42 39 37 35 35 35 35 32 28 30 28 26 25 26 26 27 29 32 36 40 44 45 48 55
82 78 71 67 63 62 61 57 55 52 49 48 46 43 41 39 37 34 33 33 33 29 26 27 25 25 24 22 23 24 25 28 31 36 40 42 43 48
75 72 69 65 62 59 58 55 53 51 47 46 44 42 39 37 36 34 32 31 30 28 25 25 23 24 21 20 21 21 22 25 28 31 35 38 41 45
73 70 66 62 59 57 54 51 49 48 45 43 42 40 38 36 34 33 31 30 28 25 24 23 21 21 20 19 19 19 20 22 25 28 31 34 39 43
70 67 64 60 57 54 51 48 46 45 43 41 40 38 36 35 32 30 30 29 26 23 23 21 20 19 18 18 18 18 18 20 22 26 28 32 37 43
66 62 61 58 54 51 48 46 44 42 42 39 38 36 35 33 31 29 28 27 25 22 22 21 18 18 17 17 17 16 17 19 21 23 27 29 34 39
64 60 57 55 52 49 46 44 42 40 39 37 36 35 33 31 31 29 27 26 24 22 21 20 18 17 15 16 17 16 16 18 20 22 25 29 32 37
62 58 54 51 49 47 44 42 41 39 37 35 33 32 32 30 29 27 26 25 24 22 20 19 18 17 16 17 17 17 17 18 20 23 25 28 31 35
58 55 51 49 46 44 41 40 38 37 36 34 32 31 30 29 27 26 25 24 23 22 20 19 18 17 17 17 18 18 17 18 20 23 25 28 30 33
Wind_Direction
308 307 306 305 304 303 302 302 300 299 299 298 297 297 296 295 293 290 288 284 280 276 273 269 264 260 258 255 250 247 245 241 237 233 230 229 228 226
310 309 307 306 305 303 302 301 301 301 302 301 299 298 297 295 293 292 289 285 282 278 273 268 263 257 253 251 250 246 244 240 237 232 228 227 226 223
310 308 307 305 304 303 303 303 303 304 304 302 301 298 298 297 295 292 289 286 283 279 275 267 261 256 253 249 246 245 242 239 236 232 228 226 224 222
307 306 306 306 306 305 305 305 306 306 306 305 302 301 299 298 295 292 289 286 283 279 275 269 262 257 254 251 247 244 243 240 236 233 230 226 225 221
308 308 309 308 307 307 308 309 309 308 307 304 302 301 299 297 294 292 290 287 282 279 273 268 264 260 255 252 249 246 241 239 236 232 230 227 226 223
311 311 310 309 309 309 310 309 309 308 307 304 303 301 299 298 295 294 291 287 284 278 273 270 268 263 257 254 250 246 243 239 237 232 229 228 226 224
312 310 310 310 310 310 310 310 309 308 306 303 302 301 299 297 295 293 291 288 284 278 274 273 270 265 260 254 249 245 243 240 236 233 229 227 226 225
311 311 311 311 312 312 311 310 308 307 305 304 303 301 300 299 296 293 291 287 285 282 279 274 270 264 261 258 252 247 243 240 237 234 231 226 225 225
312 312 313 313 313 312 311 310 309 308 306 305 304 302 301 298 295 293 290 288 287 284 280 275 269 267 262 256 254 248 243 240 237 233 230 227 225 224
313 314 314 313 312 312 311 309 309 308 306 306 304 304 302 300 297 294 292 289 286 284 280 277 270 263 257 256 252 250 246 240 237 233 228 228 225 223
314 314 314 312 312 312 311 310 309 308 307 306 305 303 300 299 297 294 292 291 288 284 280 280 274 267 259 256 254 250 245 242 238 234 229 226 225 223
313 313 313 312 312 311 311 311 309 309 307 306 305 302 300 298 296 294 293 292 289 286 283 279 276 273 261 260 254 249 245 241 240 236 231 226 224 223
312 312 313 313 312 311 311 310 309 308 307 306 305 302 300 298 297 295 294 293 291 289 285 281 277 272 271 258 254 248 244 240 238 236 233 228 222 221
311 312 313 312 311 310 310 309 308 308 307 306 305 304 301 299 296 293 292 292 291 288 284 282 277 274 271 265 252 247 243 239 237 235 233 229 224 220
311 312 313 312 311 310 310 309 308 308 306 305 304 303 301 300 297 293 291 292 290 287 283 282 282 279 271 263 255 248 243 239 235 234 232 227 224 220
311 311 312 311 310 310 309 309 308 307 306 304 303 302 302 301 299 296 293 293 291 287 284 282 281 278 273 264 257 250 244 240 236 232 230 227 222 218
310 310 310 310 310 309 307 307 306 306 305 303 302 301 301 300 298 296 294 293 290 288 286 282 281 278 272 265 258 252 244 236 233 230 228 224 219 214
309 310 310 310 309 307 306 305 305 304 304 302 301 300 299 299 298 296 292 291 289 286 284 282 278 276 269 262 254 248 240 231 228 225 223 221 216 212
309 309 309 309 308 306 305 304 303 302 301 301 299 298 298 298 297 293 290 289 287 283 283 280 277 272 266 260 250 243 238 229 224 223 218 217 214 210
309 308 308 307 306 306 305 304 303 301 299 299 298 298 297 296 295 292 288 286 284 280 279 277 273 266 262 256 249 240 235 228 222 220 217 213 213 210
308 308 307 306 306 305 304 303 301 300 298 297 296 296 295 294 294 291 287 285 283 277 275 273 270 265 257 250 245 238 234 229 222 217 215 212 211 210
308 307 306 305 304 303 302 301 299 299 298 296 296 294 293 292 291 289 285 284 281 275 273 270 266 261 253 246 238 232 228 227 223 217 211 211 210 210
307 306 305 304 302 301 301 298 297 296 296 296 295 292 291 289 288 287 283 280 278 273 270 266 261 256 251 245 238 232 230 223 221 220 216 213 210 208
Height
10391 10376 10360 10344 10326 10308 10293 10278 10262 10252 10245 10228 10210 10192 10178 10166 10158 10150 10145 10141 10137 10134 10135 10135 10138 10140 10141 10143 10150 10158 10168 10182 10198 10214 10230 10243 10263 10284
10362 10348 10331 10315 10297 10279 10263 10248 10230 10216 10206 10190 10175 10162 10146 10138 10129 10122 10116 10112 10109 10107 10108 10110 10110 10111 10113 10115 10119 10127 10134 10148 10163 10178 10193 10207 10224 10246
10334 10321 10304 10287 10268 10248 10231 10217 10201 10186 10173 10156 10143 10132 10121 10114 10105 10096 10092 10087 10083 10081 10083 10084 10084 10085 10086 10089 10093 10097 10105 10117 10130 10143 10157 10172 10187 10206
10310 10293 10274 10257 10237 10218 10201 10185 10170 10155 10142 10127 10112 10102 10094 10089 10081 10072 10069 10066 10063 10061 10059 10059 10058 10060 10063 10066 10070 10076 10083 10092 10103 10115 10126 10145 10154 10173
10279 10261 10241 10223 10204 10186 10169 10153 10139 10126 10114 10101 10088 10079 10071 10066 10057 10051 10046 10044 10043 10041 10036 10033 10037 10041 10044 10045 10047 10051 10058 10065 10077 10087 10099 10112 10124 10142
10246 10228 10211 10192 10173 10156 10140 10125 10111 10099 10089 10077 10067 10057 10050 10042 10036 10030 10026 10024 10024 10021 10013 10016 10019 10019 10022 10026 10027 10029 10035 10042 10051 10063 10075 10086 10099 10114
10217 10200 10184 10166 10148 10132 10116 10101 10087 10076 10065 10054 10047 10038 10030 10023 10017 10013 10007 10003 10004 9999 9995 10002 9999 10000 10002 10001 10004 10008 10012 10017 10027 10037 10050 10061 10073 10087
10188 10170 10155 10137 10120 10105 10092 10078 10067 10056 10043 10034 10026 10019 10012 10005 9999 9995 9990 9986 9985 9981 9976 9987 9980 9981 9981 9982 9985 9988 9991 9996 10005 10015 10026 10037 10049 10062
10159 10142 10127 10110 10094 10081 10069 10056 10047 10037 10025 10016 10007 10001 9994 9989 9983 9979 9975 9970 9968 9965 9960 9967 9964 9962 9965 9966 9966 9969 9974 9978 9985 9994 10003 10015 10027 10039
10131 10115 10101 10086 10073 10060 10048 10038 10028 10019 10009 10000 9990 9983 9976 9971 9966 9962 9959 9957 9953 9950 9943 9948 9947 9947 9948 9949 9949 9952 9956 9960 9966 9973 9983 9994 10005 10018
10104 10091 10079 10063 10051 10039 10028 10019 10010 10002 9993 9984 9976 9968 9962 9956 9951 9947 9944 9941 9938 9936 9931 9931 9932 9931 9934 9933 9933 9936 9940 9943 9947 9955 9965 9973 9984 9997
10081 10068 10058 10043 10031 10020 10009 10001 9992 9985 9977 9970 9962 9954 9947 9942 9938 9932 9929 9927 9923 9922 9917 9918 9918 9916 9919 9919 9919 9921 9925 9928 9932 9939 9947 9955 9967 9978
10060 10048 10038 10025 10012 10002 9994 9985 9977 9969 9962 9954 9948 9942 9936 9930 9925 9920 9915 9913 9911 9908 9905 9904 9906 9905 9904 9906 9906 9909 9911 9915 9918 9923 9930 9939 9950 9959
10039 10028 10020 10009 9995 9986 9979 9970 9961 9954 9946 9940 9933 9928 9923 9919 9914 9909 9905 9902 9898 9898 9894 9893 9894 9893 9893 9893 9895 9896 9899 9902 9905 9910 9916 9925 9933 9943
10020 10008 10001 9992 9980 9970 9963 9956 9947 9939 9933 9926 9921 9915 9911 9907 9902 9899 9894 9891 9888 9886 9885 9882 9882 9882 9882 9882 9884 9885 9887 9890 9893 9898 9903 9910 9919 9930
10002 9990 9983 9975 9966 9956 9947 9940 9932 9926 9919 9913 9908 9903 9898 9895 9890 9887 9884 9880 9877 9876 9876 9874 9873 9872 9872 9872 9873 9874 9877 9879 9882 9887 9892 9899 9908 9917
9986 9975 9967 9958 9949 9942 9933 9926 9919 9911 9906 9900 9895 9891 9887 9884 9880 9876 9873 9870 9867 9867 9866 9865 9864 9863 9864 9864 9864 9865 9868 9871 9874 9878 9884 9890 9897 9905
9967 9958 9950 9942 9933 9926 9920 9913 9906 9899 9893 9888 9883 9880 9877 9873 9870 9866 9863 9860 9859 9858 9857 9856 9857 9856 9856 9856 9857 9858 9861 9864 9867 9871 9876 9882 9889 9897
9951 9940 9931 9925 9918 9911 9905 9899 9894 9888 9882 9877 9873 9869 9866 9863 9860 9857 9854 9851 9850 9850 9849 9849 9849 9849 9848 9849 9851 9852 9854 9857 9861 9865 9870 9875 9881 9888
9934 9926 9915 9909 9903 9896 9890 9885 9881 9876 9870 9866 9862 9858 9856 9853 9850 9848 9846 9843 9843 9843 9842 9842 9842 9842 9842 9843 9844 9847 9849 9852 9855 9859 9864 9869 9875 9882
9917 9910 9902 9893 9887 9881 9876 9872 9867 9864 9859 9855 9852 9849 9846 9844 9841 9839 9837 9836 9835 9835 9835 9835 9835 9836 9836 9837 9838 9841 9844 9847 9850 9854 9858 9863 9869 9876
9900 9893 9886 9879 9873 9868 9863 9859 9855 9851 9848 9845 9842 9839 9837 9835 9833 9831 9829 9828 9827 9827 9828 9829 9829 9829 9830 9831 9833 9835 9838 9842 9845 9849 9853 9857 9863 9870
9885 9878 9871 9865 9860 9855 9851 9847 9843 9840 9836 9834 9832 9830 9828 9826 9824 9822 9821 9820 9820 9820 9821 9821 9822 9823 9824 9825 9828 9831 9834 9837 9840 9843 9847 9852 9857 9863